Flag for U.S.A. Weather past 2 weeks in Leawood, Kansas, U.S.A.

Now
38 °F

Mostly cloudy.


Feels Like: 31 °F
Forecast: 36 / 53 °F
Wind: 10 mph from Southeast

Location: Johnson County Executive Airport

Current Time: Mar 28, 2015 at 6:51:40 AM

Latest Report: Mar 28, 2015 at 5:53 AM


Visibility: 10 mi

Pressure: 30.11 "Hg

Humidity: 60%

Dew point: 25 °F

Location of LeawoodLocation

Historic Weather in Leawood — Graph

°F

Leawood temperature yesterday

Maximum temperature yesterday: 44 °F (at 3:53 PM)
Minimum temperature yesterday: 34 °F (at 6:58 AM)
Average temperature yesterday: 39 °F

Past Weeks' High & Low Weather Summary

 TemperatureHumidityPressure
High80 °F (Mar 16, 2:53 PM)100% (Mar 19, 1:53 AM)30.35 "Hg (Mar 19, 1:53 AM)
Low32 °F (Mar 20, 6:53 AM)22% (Mar 15, 4:53 PM)29.76 "Hg (Mar 24, 4:53 PM)
Average50 °F63%30.10 "Hg
* Reported Mar 13 5:53 AM — Mar 28 5:53 AM, Leawood, Weather by CustomWeather, © 2015

Note: Actual official high and low records may vary slightly from our data, if they occured in-between our weather recording intervals... More about our weather records

Advertising

Leawood weather history for previous 24 hours

 ConditionsComfort  
Time TempWeatherWind HumidityBarometerVisibility
5:53 AM
Sat, Mar 28
38 °FMostly cloudy.10 mph60%30.11 "Hg10 mi
4:53 AM38 °FOvercast.7 mph58%30.10 "Hg10 mi
3:53 AM38 °FPartly cloudy.8 mph55%30.09 "Hg10 mi
2:53 AM39 °FPartly cloudy.8 mph53%30.10 "Hg10 mi
1:53 AM39 °FOvercast.6 mph48%30.11 "Hg10 mi
12:53 AM39 °FOvercast.6 mph50%30.12 "Hg10 mi
11:53 PM
Fri, Mar 27
40 °FOvercast.7 mph47%30.13 "Hg10 mi
10:53 PM40 °FOvercast.7 mph45%30.15 "Hg10 mi
9:53 PM40 °FOvercast.No wind47%30.17 "Hg10 mi
8:53 PM41 °FOvercast.No wind43%30.17 "Hg10 mi
7:53 PM41 °FOvercast.7 mph41%30.17 "Hg10 mi
6:53 PM42 °FMostly cloudy.8 mph38%30.17 "Hg10 mi
5:53 PM43 °FOvercast.6 mph37%30.16 "Hg10 mi
4:53 PM43 °FScattered clouds.3 mph35%30.15 "Hg10 mi
3:53 PM44 °FSunny.5 mph37%30.16 "Hg10 mi
2:53 PM43 °FSunny.9 mph38%30.20 "Hg10 mi
1:53 PM42 °FSunny.7 mph43%30.24 "Hg10 mi
12:53 PM39 °FPassing clouds.N/A46%30.26 "Hg10 mi
11:53 AM38 °FPassing clouds.10 mph55%30.27 "Hg10 mi
10:53 AM35 °FPartly sunny.13 mph56%30.27 "Hg10 mi
10:01 AM36 °FPartly sunny.15 mph59%30.25 "Hg10 mi
8:53 AM34 °FPassing clouds.12 mph73%30.26 "Hg10 mi
7:53 AM34 °FPassing clouds.12 mph82%30.24 "Hg10 mi
6:58 AM34 °FPassing clouds.9 mph82%30.20 "Hg10 mi
Weather by CustomWeather, © 2015

See weather overviewHow to use our weather pages